This demonstration page uses our WeatherBlox Daily Observations layout. Learn more.

Left ArrowRight Arrow

34.74481, -87.66753

Hourly Observations for December 22, 2017

Temp ( °F °C ) Dew Point ( °F °C ) Humidity (%) Winds ( mph kmh ) Pressure ( in mb ) Visibility ( mi km ) Precip ( " mm )
12:53 am 00:53 Cloudy 52 11.1 49 9.4 89 89 SE 3 6 30.06 1018 10 16 0.00 0.00
1:53 am 01:53 Cloudy 55 12.8 51 10.6 87 87 SSE 6 9 30.06 1018 10 16 0.00 0.00
2:53 am 02:53 Cloudy 57 13.9 52 11.1 83 83 SSE 8 13 30.06 1018 10 16 0.00 0.00
3:53 am 03:53 Cloudy 56 13.3 52 11.1 87 87 S 5 7 30.06 1018 10 16 0.00 0.00
4:24 am 04:24 Cloudy 56 13.3 52 11.1 87 87 SE 5 7 30.06 1018 10 16 0.00 0.00
4:53 am 04:53 Cloudy 57 13.9 53 11.7 87 87 S 6 9 30.06 1018 10 16 0.00 0.00
5:41 am 05:41 Cloudy 57 13.9 53 11.7 87 87 S 5 7 30.09 1019 10 16 0.00 0.00
5:53 am 05:53 Cloudy 58 14.4 54 12.2 87 87 S 6 9 30.07 1018 10 16 0.00 0.00
6:53 am 06:53 Cloudy 58 14.4 55 12.8 90 90 S 9 15 30.06 1018 9 14 0.00 0.00
7:53 am 07:53 Cloudy with Rain 59 15 56 13.3 90 90 S 8 13 30.06 1018 3 5 0.01 0.25
8:53 am 08:53 Cloudy 60 15.6 57 13.9 90 90 S 10 17 30.06 1018 10 16 0.01 0.25
9:53 am 09:53 Cloudy 61 16.1 57 13.9 87 87 S 6 9 30.07 1018 10 16 0.00 0.00
10:53 am 10:53 Cloudy 62 16.7 58 14.4 86 86 S 10 17 30.05 1018 10 16 0.00 0.00
11:53 am 11:53 Cloudy 64 17.8 59 15 84 84 SSW 10 17 30.03 1017 10 16 0.00 0.00
12:13 pm 12:13 Cloudy 64 17.8 59 15 84 84 SSW 13 20 30.00 1016 10 16 0.00 0.00
12:50 pm 12:50 Cloudy 64 18 59 15 83 83 SSW 9 15 30.00 1016 10 16 0.00 0.00
12:53 pm 12:53 Cloudy 65 18.3 59 15 81 81 SSW 10 17 30.02 1017 10 16 0.00 0.00
1:32 pm 13:32 Cloudy 64 17.8 59 15 84 84 N 3 6 30.00 1016 10 16 0.00 0.00
1:53 pm 13:53 Cloudy 64 17.8 59 15 84 84 N 5 7 30.01 1016 10 16 0.00 0.00
2:53 pm 14:53 Cloudy 62 16.7 58 14.4 86 86 NE 9 15 30.00 1016 10 16 0.00 0.00
3:10 pm 15:10 Cloudy 61 16.1 57 13.9 87 87 NNE 12 19 30.00 1016 10 16 0.00 0.00
3:47 pm 15:47 Cloudy with Light Rain 61 16 57 14 88 88 NNE 9 15 30.00 1016 3 4 0.01 0.25
3:53 pm 15:53 Cloudy with Light Rain 61 16.1 58 14.4 90 90 NE 12 19 30.00 1016 5 8 0.01 0.25
4:02 pm 16:02 Cloudy 61 16.1 58 14.4 90 90 ENE 10 17 29.97 1015 10 16 0.00 0.03
4:53 pm 16:53 Cloudy 61 16.1 58 14.4 90 90 ENE 8 13 29.98 1015 10 16 0.00 0.03
5:53 pm 17:53 Partly Cloudy 61 16.1 58 14.4 90 90 ESE 6 9 29.97 1015 10 16 0.00 0.00
6:40 pm 18:40 Mostly Cloudy 61 16.1 58 14.4 90 90 SSE 5 7 29.94 1014 9 14 0.00 0.00
6:53 pm 18:53 Mostly Cloudy 61 16.1 58 14.4 90 90 SE 5 7 29.96 1015 9 14 0.00 0.00
7:11 pm 19:11 Partly Cloudy 63 17.2 59 15 87 87 S 7 11 29.94 1014 10 16 0.00 0.00
7:53 pm 19:53 Partly Cloudy 65 18.3 60 15.6 84 84 S 12 19 29.94 1014 10 16 0.00 0.00
8:53 pm 20:53 Mostly Clear 66 18.9 61 16.1 84 84 S 16 26 29.92 1013 10 16 0.00 0.00
9:30 pm 21:30 Mostly Cloudy 67 19.4 62 16.7 84 84 SSW 18 30 29.91 1013 10 16 0.00 0.00
9:53 pm 21:53 Cloudy 68 20 62 16.7 81 81 S 18 30 29.91 1013 10 16 0.00 0.00
10:53 pm 22:53 Cloudy 68 20 62 16.7 81 81 S 21 33 29.89 1012 10 16 0.00 0.00
11:53 pm 23:53 Cloudy 69 20.6 62 16.7 78 78 SSW 21 33 29.88 1012 10 16 0.00 0.00

Powered by AerisWeather